Location: Belfast
(54.5830°N, 5.9330°W)
Time: 23:18:34
(UTC+01:00)

ISS - Pass Details

Date: 22 May 2018
Orbit: 402 x 407 km, 51.6° (Epoch: 24 May)

Event Time Altitude Azimuth Distance (km) Brightness Sun altitude
Rises 03:37:44 0° 276° (W) 2,321 -0.2 -9.5°
Reaches altitude 10° 03:40:08 10° 259° (W) 1,459 -1.4 -9.3°
Maximum altitude 03:42:39 21° 209° (SSW) 975 -2.5 -9.1°
Drops below altitude 10° 03:45:10 10° 158° (SSE) 1,453 -1.3 -8.9°
Sets 03:47:33 0° 141° (SE) 2,309 -0.2 -8.7°
